Total_Precipitation_Accumulation
0.23 0.24 0.26 0.24 0.25 0.26 0.28 0.38 0.53 0.37 0.10 0.03 0.05 0.06 0.09 0.13 0.17 0.17 0.17 0.20 0.27 0.35 0.38 0.41 0.46 0.57 0.89 1.56 2.52 3.19 3.07 2.42 1.71 1.35 1.38 1.65 2.08 2.50
0.28 0.30 0.31 0.31 0.31 0.30 0.32 0.32 0.40 0.48 0.29 0.05 0.06 0.07 0.09 0.12 0.17 0.18 0.19 0.21 0.23 0.28 0.33 0.36 0.41 0.50 0.66 0.96 1.55 2.47 3.06 3.00 2.41 1.83 1.63 1.74 1.97 2.42
0.30 0.34 0.35 0.35 0.35 0.33 0.34 0.35 0.34 0.40 0.39 0.10 0.04 0.07 0.13 0.16 0.18 0.18 0.19 0.18 0.16 0.20 0.27 0.34 0.39 0.47 0.59 0.77 1.05 1.63 2.50 3.02 3.00 2.52 2.12 1.95 1.92 2.07
0.44 0.43 0.44 0.45 0.47 0.45 0.45 0.41 0.36 0.35 0.40 0.26 0.07 0.06 0.13 0.20 0.26 0.26 0.22 0.19 0.16 0.16 0.21 0.29 0.36 0.43 0.54 0.67 0.85 1.14 1.72 2.46 2.93 2.89 2.50 2.13 1.96 2.02
0.72 0.71 0.68 0.65 0.66 0.64 0.62 0.55 0.44 0.36 0.35 0.34 0.18 0.10 0.14 0.23 0.34 0.35 0.30 0.23 0.17 0.18 0.21 0.25 0.31 0.37 0.44 0.56 0.70 0.87 1.13 1.55 2.17 2.71 2.88 2.58 2.20 2.05
0.82 0.86 0.91 0.94 0.94 0.89 0.87 0.72 0.57 0.48 0.42 0.42 0.32 0.21 0.18 0.24 0.42 0.48 0.43 0.34 0.25 0.20 0.23 0.25 0.30 0.36 0.38 0.41 0.46 0.60 0.86 1.24 1.67 2.23 2.76 2.88 2.54 2.24
0.58 0.62 0.73 0.89 1.02 1.10 1.14 1.00 0.86 0.80 0.69 0.61 0.50 0.39 0.31 0.36 0.51 0.57 0.62 0.55 0.46 0.35 0.28 0.23 0.24 0.26 0.27 0.31 0.39 0.50 0.68 0.92 1.22 1.66 2.22 2.72 2.77 2.55
0.38 0.38 0.43 0.59 0.71 0.83 0.98 1.04 1.10 1.17 1.10 0.93 0.76 0.61 0.45 0.42 0.50 0.68 0.75 0.82 0.75 0.53 0.45 0.37 0.32 0.30 0.26 0.25 0.30 0.40 0.56 0.78 1.02 1.30 1.67 2.15 2.56 2.68
0.21 0.22 0.23 0.32 0.45 0.50 0.59 0.71 0.85 1.02 1.16 1.16 1.10 0.83 0.59 0.50 0.60 0.76 0.83 0.90 0.82 0.70 0.71 0.70 0.56 0.44 0.36 0.34 0.39 0.41 0.49 0.64 0.83 1.04 1.28 1.61 2.03 2.44
0.16 0.15 0.13 0.18 0.33 0.44 0.54 0.54 0.56 0.71 0.97 1.15 1.25 1.07 0.82 0.71 0.84 1.02 1.12 1.11 0.97 0.91 0.95 0.98 0.76 0.61 0.55 0.50 0.48 0.43 0.44 0.51 0.65 0.81 1.01 1.22 1.53 1.95
0.13 0.14 0.13 0.12 0.29 0.44 0.47 0.42 0.38 0.48 0.62 0.87 1.07 1.10 1.04 1.02 1.10 1.31 1.41 1.45 1.34 1.13 1.10 1.15 1.00 0.79 0.73 0.73 0.66 0.54 0.46 0.46 0.53 0.65 0.80 0.96 1.17 1.55
0.11 0.11 0.18 0.24 0.34 0.40 0.39 0.39 0.43 0.40 0.39 0.46 0.53 0.63 0.69 0.72 0.91 1.16 1.29 1.40 1.42 1.45 1.27 1.19 1.23 1.16 1.18 0.96 0.77 0.56 0.46 0.47 0.51 0.57 0.65 0.75 0.92 1.13
0.15 0.15 0.17 0.26 0.31 0.32 0.36 0.39 0.49 0.44 0.36 0.41 0.45 0.48 0.53 0.59 0.67 0.87 1.12 1.29 1.43 1.44 1.28 1.29 1.48 1.33 1.27 1.15 0.93 0.71 0.49 0.43 0.45 0.56 0.63 0.70 0.79 0.87
0.19 0.13 0.13 0.19 0.25 0.30 0.32 0.37 0.39 0.40 0.39 0.39 0.37 0.36 0.42 0.53 0.62 0.72 0.89 1.04 1.15 1.23 1.16 1.26 1.57 1.43 1.26 1.07 0.95 0.89 0.68 0.53 0.45 0.47 0.52 0.74 0.86 0.90
0.29 0.25 0.19 0.21 0.22 0.18 0.19 0.26 0.29 0.29 0.36 0.37 0.32 0.29 0.34 0.46 0.53 0.63 0.71 0.81 0.92 1.01 1.10 1.16 1.37 1.48 1.40 1.16 0.88 0.84 0.85 0.78 0.59 0.52 0.53 0.57 0.64 0.72
0.30 0.25 0.21 0.19 0.15 0.11 0.10 0.12 0.15 0.21 0.30 0.34 0.30 0.26 0.27 0.35 0.46 0.57 0.71 0.77 0.87 0.92 1.04 1.16 1.32 1.57 1.56 1.17 0.97 0.86 0.77 0.87 0.76 0.57 0.54 0.56 0.57 0.53
0.36 0.33 0.25 0.19 0.17 0.14 0.10 0.08 0.10 0.14 0.22 0.25 0.27 0.29 0.31 0.35 0.41 0.51 0.71 0.83 0.92 0.89 1.03 1.25 1.38 1.54 1.61 1.48 1.28 0.97 0.77 0.71 0.70 0.60 0.56 0.64 0.70 0.63
0.41 0.38 0.23 0.16 0.15 0.14 0.14 0.12 0.11 0.13 0.16 0.22 0.27 0.30 0.34 0.39 0.43 0.49 0.65 0.83 0.89 0.86 0.95 1.19 1.42 1.65 1.79 1.77 1.53 1.14 0.89 0.76 0.75 0.70 0.60 0.62 0.76 0.79
0.29 0.24 0.16 0.14 0.14 0.14 0.14 0.15 0.13 0.10 0.14 0.21 0.25 0.27 0.32 0.38 0.44 0.50 0.59 0.72 0.80 0.84 0.91 1.07 1.36 1.62 1.72 1.73 1.79 1.46 1.12 0.92 0.89 0.90 0.77 0.60 0.62 0.72
0.17 0.19 0.17 0.14 0.15 0.16 0.16 0.16 0.14 0.13 0.15 0.18 0.21 0.24 0.30 0.38 0.42 0.45 0.53 0.66 0.75 0.83 0.90 1.00 1.25 1.50 1.57 1.46 1.52 1.62 1.55 1.21 0.99 0.99 0.92 0.78 0.72 0.86
0.14 0.15 0.15 0.16 0.16 0.17 0.17 0.17 0.17 0.17 0.15 0.18 0.19 0.20 0.25 0.34 0.38 0.38 0.45 0.56 0.69 0.78 0.83 0.88 1.07 1.32 1.51 1.46 1.36 1.40 1.61 1.64 1.24 0.99 0.90 0.90 0.91 0.96
0.16 0.16 0.15 0.16 0.18 0.19 0.20 0.19 0.19 0.16 0.15 0.16 0.16 0.17 0.20 0.27 0.33 0.34 0.41 0.50 0.58 0.66 0.73 0.80 0.94 1.27 1.56 1.58 1.42 1.34 1.51 1.73 1.75 1.42 1.07 0.85 0.77 0.77
0.21 0.21 0.19 0.18 0.17 0.19 0.21 0.20 0.19 0.16 0.13 0.14 0.15 0.15 0.17 0.22 0.25 0.30 0.35 0.42 0.51 0.58 0.68 0.81 0.94 1.18 1.47 1.57 1.51 1.39 1.40 1.51 1.62 1.56 1.49 1.18 0.75 0.51